EW6456 Weather Reports


Display with metric or nautical units.
time (UTC)temp
F
wind
direction
speed
MPH
gust
MPH
rain 1hr
in
rain 24hr
in
rain mn
in
humidity
%
barometer
mb
20260903233050 84 293 0.0 0.0 0.00 0.00 0.00 19 1003.4
20260903231548 85 229 0.0 8.0 0.00 0.00 0.00 18 1003.5
20260903230050 85 311 0.0 1.0 0.00 0.00 0.00 19 1003.4
20260903224523 83 314 0.0 6.0 0.00 0.00 0.00 19 1003.5
20260903223016 84 293 3.0 9.0 0.00 0.00 0.00 20 1003.6
20260903221509 83 288 0.0 12.0 0.00 0.00 0.00 19 1003.7
20260903220008 83 309 1.0 8.0 0.00 0.00 0.00 19 1003.5
20260903214504 83 291 0.0 11.0 0.00 0.00 0.00 19 1003.6
20260903213002 83 260 3.0 11.0 0.00 0.00 0.00 19 1003.8
20260903211603 82 302 0.0 6.0 0.00 0.00 0.00 20 1003.8
20260903210109 82 217 2.0 7.0 0.00 0.00 0.00 20 1003.9
20260903204553 82 250 2.0 11.0 0.00 0.00 0.00 20 1004.1
20260903203051 81 243 0.0 3.0 0.00 0.00 0.00 20 1004.1
20260903201547 80 273 6.0 14.0 0.00 0.00 0.00 20 1004.2
20260903200044 80 275 5.0 15.0 0.00 0.00 0.00 20 1004.3
20260903194542 80 281 6.0 16.0 0.00 0.00 0.00 20 1004.4
20260903193040 79 293 2.0 13.0 0.00 0.00 0.00 20 1004.4
20260903191548 79 313 0.0 5.0 0.00 0.00 0.00 21 1004.4
20260903190034 79 259 0.0 10.0 0.00 0.00 0.00 21 1004.5
20260903184541 78 248 3.0 12.0 0.00 0.00 0.00 21 1004.5
20260903183032 78 300 3.0 16.0 0.00 0.00 0.00 21 1004.6
20260903181527 77 233 1.0 9.0 0.00 0.00 0.00 21 1004.5
20260903180033 77 296 2.0 10.0 0.00 0.00 0.00 22 1004.8
20260903174523 76 247 2.0 9.0 0.00 0.00 0.00 25 1004.9
20260903173021 75 311 0.0 1.0 0.00 0.00 0.00 29 1004.9
20260903171513 74 288 0.0 0.0 0.00 0.00 0.00 33 1005.1
20260903170011 71 194 0.0 0.0 0.00 0.00 0.00 39 1005.0
20260903164505 69 179 0.0 0.0 0.00 0.00 0.00 43 1005.0
20260903163002 68 226 0.0 0.0 0.00 0.00 0.00 43 1005.2
20260903161559 67 273 0.0 0.0 0.00 0.00 0.00 40 1005.4
20260903160027 66 280 0.0 2.0 0.00 0.00 0.00 43 1005.4
20260903154521 64 243 0.0 1.0 0.00 0.00 0.00 47 1005.5
20260903153014 62 278 0.0 0.0 0.00 0.00 0.00 53 1005.4
20260903151514 60 301 0.0 0.0 0.00 0.00 0.00 57 1005.3
20260903151509 60 290 0.0 0.0 0.00 0.00 0.00 57 1005.3
20260903150007 60 307 0.0 2.0 0.00 0.00 0.00 59 1005.1
20260903144506 60 193 0.0 0.0 0.00 0.00 0.00 57 1004.5
20260903143109 58 246 0.0 0.0 0.00 0.00 0.00 59 1004.6
20260903141557 58 246 0.0 0.0 0.00 0.00 0.00 61 1004.7
20260903140056 56 245 0.0 0.0 0.00 0.00 0.00 65 1004.8
20260903134554 55 281 0.0 0.0 0.00 0.00 0.00 70 1004.9
20260903133100 52 268 0.0 0.0 0.00 0.00 0.00 75 1004.8
20260903131605 0 0.0 0.0 0.00 0.00 0.00 1004.6
20260903130049 0 0.0 0.0 0.00 0.00 0.00 1004.9
20260903124542 0 0.0 0.0 0.00 0.00 0.00 1004.3
20260903123011 0 0.0 0.0 0.00 0.00 0.00 1004.3
20260903121503 0 0.0 0.0 0.00 0.00 0.00 1004.1
20260903120057 0 0.0 0.0 0.00 0.00 0.00 1004.3
20260903114553 0 0.0 0.0 0.00 0.00 0.00 1004.3
20260903113050 51 251 0.0 0.0 0.00 0.00 0.00 79 1004.5
20260903111556 50 258 0.0 0.0 0.00 0.00 0.00 82 1004.5
20260903110045 49 308 0.0 2.0 0.00 0.00 0.00 79 1004.4
20260903104543 52 175 0.0 5.0 0.00 0.00 0.00 76 1004.5
20260903103042 53 281 3.0 5.0 0.00 0.00 0.00 71 1004.4
20260903101540 53 196 0.0 6.0 0.00 0.00 0.00 71 1004.5
20260903100037 51 290 2.0 5.0 0.00 0.00 0.00 76 1004.4
20260903094532 52 286 1.0 2.0 0.00 0.00 0.00 72 1004.5
20260903093034 53 288 2.0 6.0 0.00 0.00 0.00 69 1004.2
20260903091530 53 287 4.0 6.0 0.00 0.00 0.00 68 1004.4
20260903090025 54 278 0.0 5.0 0.00 0.00 0.00 67 1004.1
20260903084525 54 286 3.0 6.0 0.00 0.00 0.00 68 1004.1
20260903083028 54 290 1.0 4.0 0.00 0.00 0.00 69 1003.9
20260903081521 53 238 0.0 4.0 0.00 0.00 0.00 70 1004.0
20260903080016 56 162 2.0 6.0 0.00 0.00 0.00 65 1003.8
20260903074515 56 281 1.0 5.0 0.00 0.00 0.00 63 1003.5
20260903073012 55 297 5.0 9.0 0.00 0.00 0.00 66 1003.7
20260903071509 55 343 2.0 5.0 0.00 0.00 0.00 67 1002.9
20260903070004 57 276 1.0 5.0 0.00 0.00 0.00 62 1003.0
20260903064500 58 25 0.0 0.0 0.00 0.00 0.00 62 1003.1
20260903063059 58 297 0.0 0.0 0.00 0.00 0.00 62 1003.0
20260903061606 58 257 0.0 0.0 0.00 0.00 0.00 63 1002.9
20260903060056 61 305 0.0 0.0 0.00 0.00 0.00 57 1002.5
20260903054555 60 249 0.0 0.0 0.00 0.00 0.00 58 1002.7
20260903053054 60 331 0.0 0.0 0.00 0.00 0.00 58 1002.5
20260903051556 61 139 0.0 0.0 0.00 0.00 0.00 57 1002.7
20260903050023 63 314 0.0 0.0 0.00 0.00 0.00 52 1002.6
20260903044523 64 313 0.0 6.0 0.00 0.00 0.00 51 1002.5
20260903043019 65 331 0.0 3.0 0.00 0.00 0.00 50 1002.5
20260903041518 64 337 0.0 0.0 0.00 0.00 0.00 53 1002.7
20260903040017 65 108 0.0 0.0 0.00 0.00 0.00 52 1002.8
20260903034520 67 4 0.0 4.0 0.00 0.00 0.00 48 1002.2
20260903033016 69 313 3.0 10.0 0.00 0.00 0.00 46 1001.8
20260903031516 71 300 0.0 0.0 0.00 0.00 0.00 46 1001.7
20260903030014 73 330 0.0 3.0 0.00 0.00 0.00 40 1001.7
20260903024513 75 28 0.0 9.0 0.00 0.00 0.00 34 1000.9
20260903023012 78 354 0.0 0.0 0.00 0.00 0.00 31 1000.3
20260903021518 79 342 0.0 0.0 0.00 0.00 0.00 29 1000.1
20260903020010 81 327 0.0 6.0 0.00 0.00 0.00 26 999.9
20260903014541 81 315 0.0 5.0 0.00 0.00 0.00 26 999.6
20260903013044 82 311 0.0 16.0 0.00 0.00 0.00 26 999.7
20260903011509 82 162 1.0 12.0 0.00 0.00 0.00 29 999.1
20260903010009 83 169 0.0 0.0 0.00 0.00 0.00 30 998.7
20260903004506 84 193 0.0 0.0 0.00 0.00 0.00 29 998.6
20260903003005 85 141 0.0 0.0 0.00 0.00 0.00 27 998.6
20260903001504 86 213 0.0 4.0 0.00 0.00 0.00 27 998.7
20260903000003 88 182 0.0 4.0 0.00 0.00 0.00 25 998.7
20260902234505 87 208 0.0 3.0 0.00 0.00 0.00 26 998.7